When you browse on this site, cookies collect data to enhance your experience and personalize the content and advertising you see.
Visit our Privacy Policy to learn more. By continuing to use the site, you agree to this use of cookies and data.
  • In Czech Republic
  • List of Countries
  • For 7 days
  • Water Temperature
  • Weather Map
  • Weather Widgets
  • user-avatar
    Login

    Hourly Weather Comayagua

    Today, 18 February, Tuesday

    Time Temperature Precipitation Wind Pressure Humidity
    00:00 +21°C° 0 mm 1 mps 707 mmHg 95%
    01:00 +21°C° 0 mm 1 mps 707 mmHg 96%
    02:00 +21°C° 0 mm 1 mps 707 mmHg 96%
    03:00 +21°C° 0 mm 1 mps 707 mmHg 97%
    04:00 +20°C° 0 mm 1 mps 707 mmHg 97%
    05:00 +20°C° 0 mm 1 mps 707 mmHg 97%
    06:00 +20°C° 0 mm 1 mps 707 mmHg 97%
    07:00 +22°C° 0 mm 1 mps 708 mmHg 84%
    08:00 +25°C° 0 mm 2 mps 709 mmHg 70%
    09:00 +27°C° 0 mm 2 mps 710 mmHg 57%
    10:00 +29°C° 0 mm 2 mps 709 mmHg 48%
    11:00 +31°C° 0 mm 2 mps 709 mmHg 39%
    12:00 +35°C° 0 mm 3 mps 708 mmHg 30%
    13:00 +35°C° 0 mm 3 mps 708 mmHg 29%
    14:00 +35°C° 0 mm 3 mps 707 mmHg 28%
    15:00 +35°C° 0 mm 3 mps 706 mmHg 27%
    16:00 +33°C° 0 mm 3 mps 706 mmHg 35%
    17:00 +29°C° 0 mm 2 mps 706 mmHg 43%
    18:00 +27°C° 0 mm 2 mps 706 mmHg 50%
    19:00 +25°C° 0 mm 1 mps 707 mmHg 61%
    20:00 +24°C° 0 mm 1 mps 708 mmHg 72%
    21:00 +23°C° 0 mm 1 mps 708 mmHg 83%
    22:00 +22°C° 0 mm 1 mps 708 mmHg 87%
    23:00 +22°C° 0 mm 1 mps 708 mmHg 91%

    Tomorrow, 19 February, Wednesday

    Time Temperature Precipitation Wind Pressure Humidity
    00:00 +22°C° 0 mm 1 mps 708 mmHg 95%
    01:00 +22°C° 0 mm 1 mps 708 mmHg 96%
    02:00 +21°C° 0 mm 1 mps 708 mmHg 96%
    03:00 +21°C° 0 mm 1 mps 708 mmHg 96%
    04:00 +21°C° 0 mm 1 mps 708 mmHg 97%
    05:00 +21°C° 0 mm 1 mps 708 mmHg 97%
    06:00 +21°C° 0 mm 1 mps 708 mmHg 97%
    07:00 +23°C° 0 mm 1 mps 709 mmHg 84%
    08:00 +26°C° 0 mm 2 mps 710 mmHg 72%
    09:00 +28°C° 0 mm 2 mps 711 mmHg 59%
    10:00 +30°C° 0 mm 2 mps 710 mmHg 51%
    11:00 +32°C° 0 mm 2 mps 710 mmHg 42%
    12:00 +35°C° 0 mm 3 mps 710 mmHg 33%
    13:00 +35°C° 0 mm 3 mps 709 mmHg 32%
    14:00 +36°C° 0 mm 3 mps 708 mmHg 30%
    15:00 +36°C° 0 mm 3 mps 708 mmHg 28%
    16:00 +34°C° 0 mm 3 mps 708 mmHg 39%
    17:00 +30°C° 0 mm 3 mps 708 mmHg 49%
    18:00 +27°C° 0 mm 2 mps 708 mmHg 60%
    19:00 +26°C° 0.1 mm 2 mps 708 mmHg 71%
    20:00 +24°C° 0.1 mm 2 mps 709 mmHg 82%
    21:00 +23°C° 0.1 mm 2 mps 709 mmHg 94%
    22:00 +23°C° 0.1 mm 2 mps 709 mmHg 95%
    23:00 +23°C° 0.1 mm 1 mps 709 mmHg 96%

    Day after tomorrow, 20 February, Thursday

    Time Temperature Precipitation Wind Pressure Humidity
    00:00 +22°C° 0.1 mm 1 mps 709 mmHg 97%
    01:00 +22°C° 0 mm 1 mps 709 mmHg 97%
    02:00 +22°C° 0 mm 1 mps 708 mmHg 97%
    03:00 +22°C° 0 mm 1 mps 708 mmHg 97%
    04:00 +22°C° 0 mm 1 mps 708 mmHg 97%
    05:00 +21°C° 0 mm 1 mps 709 mmHg 97%
    06:00 +21°C° 0 mm 1 mps 709 mmHg 97%
    07:00 +23°C° 0 mm 2 mps 709 mmHg 86%
    08:00 +25°C° 0 mm 2 mps 710 mmHg 74%
    09:00 +27°C° 0 mm 2 mps 711 mmHg 63%
    10:00 +29°C° 0 mm 2 mps 710 mmHg 52%
    11:00 +31°C° 0 mm 3 mps 710 mmHg 42%
    12:00 +34°C° 0 mm 3 mps 710 mmHg 31%
    13:00 +35°C° 0 mm 3 mps 709 mmHg 31%
    14:00 +35°C° 0 mm 3 mps 708 mmHg 31%
    15:00 +35°C° 0 mm 3 mps 708 mmHg 30%
    16:00 +33°C° 0 mm 3 mps 708 mmHg 40%
    17:00 +30°C° 0 mm 3 mps 708 mmHg 50%
    18:00 +27°C° 0 mm 3 mps 708 mmHg 59%
    19:00 +26°C° 0 mm 2 mps 708 mmHg 71%
    20:00 +24°C° 0 mm 2 mps 709 mmHg 82%
    21:00 +23°C° 0 mm 2 mps 709 mmHg 94%
    22:00 +23°C° 0.1 mm 2 mps 710 mmHg 94%
    23:00 +23°C° 0.1 mm 2 mps 710 mmHg 95%

    21 February, Friday

    Time Temperature Precipitation Wind Pressure Humidity
    00:00 +23°C° 0.1 mm 2 mps 710 mmHg 95%
    07:00 +23°C° 0 mm 2 mps 710 mmHg 89%
    08:00 +25°C° 0 mm 3 mps 711 mmHg 81%
    09:00 +26°C° 0 mm 3 mps 712 mmHg 73%
    10:00 +28°C° 0 mm 4 mps 711 mmHg 65%
    11:00 +29°C° 0 mm 4 mps 711 mmHg 56%
    12:00 +32°C° 0 mm 5 mps 711 mmHg 48%
    13:00 +32°C° 0 mm 5 mps 710 mmHg 48%
    14:00 +32°C° 0 mm 5 mps 710 mmHg 48%
    15:00 +32°C° 0 mm 5 mps 709 mmHg 47%
    16:00 +29°C° 0 mm 4 mps 709 mmHg 55%
    17:00 +27°C° 0 mm 4 mps 709 mmHg 63%
    18:00 +25°C° 0 mm 3 mps 710 mmHg 71%
    19:00 +24°C° 0 mm 3 mps 710 mmHg 79%
    20:00 +23°C° 0 mm 2 mps 710 mmHg 88%
    21:00 +20°C° 0 mm 2 mps 711 mmHg 96%
    22:00 +21°C° 0 mm 2 mps 711 mmHg 95%
    23:00 +21°C° 0 mm 3 mps 711 mmHg 94%

    22 February, Saturday

    Time Temperature Precipitation Wind Pressure Humidity
    00:00 +22°C° 0 mm 3 mps 711 mmHg 93%
    01:00 +21°C° 0 mm 3 mps 711 mmHg 94%
    02:00 +21°C° 0 mm 2 mps 710 mmHg 95%
    03:00 +21°C° 0 mm 2 mps 710 mmHg 95%
    04:00 +21°C° 0 mm 2 mps 710 mmHg 95%
    05:00 +20°C° 0 mm 2 mps 710 mmHg 95%
    06:00 +20°C° 0 mm 3 mps 711 mmHg 95%
    07:00 +22°C° 0 mm 3 mps 711 mmHg 86%
    08:00 +24°C° 0 mm 3 mps 712 mmHg 77%
    09:00 +25°C° 0 mm 4 mps 712 mmHg 67%
    10:00 +27°C° 0 mm 4 mps 712 mmHg 60%
    11:00 +29°C° 0 mm 4 mps 712 mmHg 52%
    12:00 +32°C° 0 mm 5 mps 711 mmHg 44%
    13:00 +32°C° 0 mm 5 mps 711 mmHg 43%
    14:00 +32°C° 0 mm 5 mps 710 mmHg 42%
    15:00 +32°C° 0 mm 5 mps 709 mmHg 40%
    16:00 +29°C° 0 mm 4 mps 709 mmHg 50%
    17:00 +27°C° 0 mm 4 mps 709 mmHg 60%
    18:00 +25°C° 0 mm 3 mps 710 mmHg 70%
    19:00 +24°C° 0 mm 3 mps 710 mmHg 79%
    20:00 +21°C° 0 mm 2 mps 710 mmHg 88%
    21:00 +20°C° 0 mm 2 mps 711 mmHg 97%
    22:00 +20°C° 0 mm 2 mps 711 mmHg 97%
    23:00 +20°C° 0 mm 2 mps 711 mmHg 96%

    23 February, Sunday

    Time Temperature Precipitation Wind Pressure Humidity
    00:00 +20°C° 0 mm 2 mps 711 mmHg 96%
    01:00 +20°C° 0 mm 2 mps 710 mmHg 95%
    02:00 +21°C° 0 mm 2 mps 710 mmHg 95%
    03:00 +21°C° 0 mm 2 mps 709 mmHg 94%
    04:00 +21°C° 0.1 mm 2 mps 710 mmHg 95%
    05:00 +21°C° 0.1 mm 2 mps 710 mmHg 95%
    06:00 +21°C° 0.1 mm 2 mps 710 mmHg 96%
    07:00 +23°C° 0.1 mm 2 mps 711 mmHg 90%
    08:00 +24°C° 0.1 mm 2 mps 711 mmHg 84%
    09:00 +25°C° 0.1 mm 3 mps 712 mmHg 79%
    10:00 +26°C° 0.1 mm 3 mps 711 mmHg 69%
    11:00 +28°C° 0.1 mm 3 mps 711 mmHg 59%
    12:00 +30°C° 0.1 mm 4 mps 710 mmHg 49%
    13:00 +30°C° 0 mm 3 mps 709 mmHg 50%
    14:00 +30°C° 0 mm 3 mps 708 mmHg 50%
    15:00 +30°C° 0 mm 3 mps 708 mmHg 51%
    16:00 +28°C° 0 mm 3 mps 708 mmHg 59%
    17:00 +27°C° 0 mm 2 mps 708 mmHg 66%
    18:00 +25°C° 0 mm 2 mps 708 mmHg 74%
    19:00 +24°C° 0 mm 1 mps 708 mmHg 82%
    20:00 +22°C° 0 mm 1 mps 708 mmHg 89%
    21:00 +21°C° 0 mm 1 mps 708 mmHg 97%
    22:00 +21°C° 0 mm 1 mps 708 mmHg 97%
    23:00 +21°C° 0 mm 1 mps 708 mmHg 97%
    Show more